Regional Weather Roundup
Issued by NWS Raleigh/Durham, NC

Home | Current Version | Previous Version | Text Only | Print | Product List | Glossary On
Versions: 1 2 3 4 5 6 7 8 9 10 11 12 13 14 15 16 17 18 19 20 21 22 23 24 25 26 27
000
ASUS42 KRAH 020310
RWRRAH
NORTH CAROLINA WEATHER ROUNDUP
NATIONAL WEATHER SERVICE RALEIGH NC
1100 PM EDT SUN MAY 01 2016

NOTE: "FAIR" INDICATES FEW OR NO CLOUDS BELOW 12,000 FEET WITH NO
SIGNIFICANT WEATHER AND/OR OBSTRUCTIONS TO VISIBILITY.

NCZ001-053-055-056-065-067-020400-
WESTERN NORTH CAROLINA

CITY           SKY/WX    TMP DP  RH WIND       PRES   REMARKS
ASHEVILLE      CLOUDY    67  61  81 S5        30.04F
JEFFERSON      LGT RAIN  61  58  91 CALM      30.09S
MORGANTON      CLOUDY    64  64 100 CALM      30.07S FOG
HICKORY        CLOUDY    67  64  90 S5        30.02R
RUTHERFORDTON  CLOUDY    64  64 100 CALM      30.03S
MOUNT AIRY     CLOUDY    66  64  93 CALM      30.04S
BOONE          CLOUDY    62  61  96 CALM      30.10S
$$

NCZ021-022-025-041-071-084-088-020400-
CENTRAL NORTH CAROLINA

CITY           SKY/WX    TMP DP  RH WIND       PRES   REMARKS
CHARLOTTE      MOCLDY    65  61  87 SW5       30.03S
GREENSBORO     MOCLDY    69  67  93 S8        30.01S
WINSTON-SALEM  PTCLDY    69  67  93 S6        30.01F
RALEIGH-DURHAM CLOUDY    68  64  87 SW5       30.03R
FORT BRAGG     CLOUDY    69  64  86 S3        30.02R
FAYETTEVILLE   CLOUDY    68  65  90 SW6       30.03R
BURLINGTON     MOCLDY    69  65  86 S3        30.01S
LAURINBURG     CLOUDY    68  64  87 SW8       30.03S
$$

NCZ011-015-027-028-043-044-047-080-103-020400-
NORTHEASTERN NORTH CAROLINA

CITY           SKY/WX    TMP DP  RH WIND       PRES   REMARKS
ROCKY MT-WILSO MOCLDY    64  64 100 S3        30.03R
GREENVILLE     MOCLDY    68  66  94 S5        30.05S
WASHINGTON     MOCLDY    67  65  93 S3        30.04S
ELIZABETH CITY CLOUDY    67  64  90 S6        30.04F
MANTEO         NOT AVBL
CAPE HATTERAS  CLOUDY    68  65  90 SW7       30.06S
$$

NCZ078-087-090-091-093-098-101-020400-
SOUTHEASTERN NORTH CAROLINA

CITY           SKY/WX    TMP DP  RH WIND       PRES   REMARKS
LUMBERTON      CLOUDY    68  63  84 S5        30.02S
GOLDSBORO      CLOUDY    70  70 100 VRB1      30.02R
KINSTON        CLOUDY    68  67  96 CALM      30.04S
KENANSVILLE    CLOUDY    67  66  97 CALM      30.04S
NEW BERN       MOCLDY    68  65  90 CALM      30.06R
CHERRY POINT   CLOUDY    71  67  87 S9        30.05F
BEAUFORT       CLOUDY    70  67  90 S9        30.04F
JACKSONVILLE   CLOUDY    70  67  90 CALM      30.03S
WILMINGTON     CLOUDY    70  66  87 SW7       30.05R
$$





USA.gov is the U.S. government's official web portal to all federal, state and local government web resources and services.